Wind_Speed
29 29 31 32 31 32 31 31 31 29 29 27 27 28 28 27 28 29 30 31 31 31 32 32 33 34 34 34 35 35 36 36 36 37 37 38 38 38 38 39 39 38 38 39
28 28 30 30 30 32 31 31 31 30 29 29 29 28 28 28 29 29 30 30 31 32 32 33 34 34 34 34 35 35 36 36 36 37 37 37 37 37 37 37 38 37 37 37
28 27 29 30 28 29 30 29 30 30 28 28 28 28 28 28 29 30 30 31 32 33 32 33 33 34 34 34 35 35 35 36 36 36 36 36 35 35 36 36 37 37 37 37
29 28 29 28 28 28 29 29 29 28 27 27 27 28 28 28 29 29 30 30 31 32 32 32 32 32 33 34 34 34 35 36 35 35 35 35 35 35 36 36 37 37 37 37
28 29 28 25 25 26 27 28 28 28 27 27 28 29 27 27 28 29 29 30 29 30 30 31 31 31 32 33 34 35 35 35 35 35 35 35 35 35 35 35 36 36 36 36
28 28 27 25 23 24 27 28 27 27 27 27 27 28 27 27 28 28 29 29 29 29 29 29 30 31 31 32 33 34 34 34 35 35 35 35 35 35 35 34 35 36 36 37
26 26 26 24 23 24 26 26 26 26 26 26 26 27 27 28 28 28 28 28 29 29 28 28 29 30 31 31 32 33 34 34 34 34 35 34 34 34 35 35 35 35 36 37
26 26 24 24 24 24 25 26 26 26 25 25 26 26 27 27 28 28 28 28 29 29 29 29 29 30 30 30 31 32 33 33 34 34 35 34 33 33 34 34 35 35 36 37
26 25 25 25 25 24 25 25 26 26 26 26 27 27 27 27 27 27 27 28 29 29 29 29 29 29 29 29 30 30 31 32 33 34 34 33 33 33 34 34 35 35 35 36
25 24 24 25 26 26 25 25 25 26 27 27 27 27 27 27 27 27 27 27 28 29 29 30 30 30 30 30 30 30 30 31 32 32 33 33 34 34 34 34 34 35 35 36
25 24 25 25 26 26 26 25 24 25 25 26 26 27 27 26 27 27 27 28 28 28 29 30 31 31 31 31 31 30 30 30 31 31 32 32 33 33 33 34 34 34 34 35
25 25 26 26 25 26 26 26 25 25 24 24 25 26 26 27 27 27 27 27 27 28 28 29 30 30 31 31 31 30 30 30 31 31 32 31 31 31 31 32 33 33 33 33
26 26 26 26 25 25 26 26 25 25 24 24 25 25 25 26 26 27 27 26 26 27 27 27 28 29 30 30 30 30 30 31 31 31 31 30 30 30 30 30 31 31 31 31
26 26 26 25 26 26 26 26 25 24 25 25 25 25 25 25 25 26 26 25 25 26 26 27 27 27 28 29 29 30 30 30 30 30 30 29 29 29 28 29 29 29 30 30
25 25 25 25 25 25 26 25 25 25 25 26 25 25 25 25 25 25 25 25 25 26 26 27 27 27 28 29 29 30 29 29 29 29 28 28 28 28 28 28 28 27 28 28
23 23 24 24 24 24 25 25 25 25 25 25 24 24 24 24 24 24 25 25 26 26 26 27 27 28 28 28 29 29 28 28 28 28 28 28 28 28 27 27 26 26 26 26
22 21 21 22 23 23 23 24 24 24 24 24 24 23 23 24 24 25 25 25 26 26 26 26 26 26 26 26 27 27 27 27 28 28 27 27 27 26 25 25 25 25 25 25
21 21 21 21 21 22 22 22 22 23 23 23 22 23 23 23 24 25 25 25 25 25 25 25 25 25 25 25 25 26 26 26 26 26 26 25 25 24 24 24 24 24 24 24
21 21 21 21 21 21 22 22 22 22 21 21 21 21 22 23 24 24 25 25 25 25 25 25 25 25 25 25 24 24 24 24 24 24 24 23 23 23 22 22 23 23 23 23
19 19 20 20 21 22 22 22 21 21 20 20 20 21 22 23 23 24 24 24 24 24 24 24 24 24 24 23 23 22 21 21 21 21 21 21 21 22 22 22 22 22 22 22
18 18 18 19 20 21 21 21 20 20 21 20 20 21 22 22 22 22 22 22 22 22 23 23 23 23 22 22 21 21 20 20 20 20 20 20 21 21 22 22 22 22 22 22
17 17 18 18 19 19 20 20 20 20 20 20 20 21 21 21 21 20 20 20 21 21 21 21 21 21 20 20 19 19 19 19 19 19 20 20 21 21 21 22 22 22 22 21
17 17 18 19 19 19 19 19 19 19 19 19 20 20 19 19 19 19 18 19 19 19 19 19 19 18 18 18 18 19 19 19 19 19 20 20 21 21 21 21 21 21 21 21
17 17 18 18 18 18 18 18 18 18 18 18 18 18 17 17 17 18 18 18 18 18 18 18 17 17 17 18 18 18 18 18 18 19 20 20 21 21 21 21 20 20 20 20
17 17 17 17 17 17 17 17 17 17 17 16 16 16 16 17 17 17 17 17 17 17 17 16 16 16 16 17 17 17 17 17 18 19 19 19 19 19 19 19 19 20 19 19
17 17 17 17 16 16 16 16 16 16 15 16 16 16 17 17 17 16 16 16 16 16 15 15 15 15 15 16 16 17 17 17 17 17 18 18 18 18 17 17 18 18 18 17
17 17 17 16 15 15 15 15 15 15 16 16 16 17 17 17 16 16 15 15 14 14 14 14 14 15 15 15 15 16 16 16 17 17 17 17 17 17 17 17 17 17 16 16
Wind_Direction
265 265 264 259 256 256 257 260 264 264 261 258 260 259 257 258 258 257 258 258 258 258 257 258 258 258 257 258 258 259 260 261 262 262 262 262 262 263 264 266 267 269 270 270
265 265 264 260 255 254 256 259 262 263 262 262 260 259 257 259 258 258 259 259 259 257 257 258 259 258 258 258 258 259 260 261 262 263 264 264 262 263 265 266 268 270 270 270
268 267 264 258 256 255 255 258 261 263 263 263 262 261 259 258 258 259 261 261 261 261 260 260 259 258 258 258 258 259 260 261 261 262 262 263 262 263 264 266 268 270 270 270
269 268 265 262 258 256 255 256 260 261 262 263 262 260 259 259 258 258 262 263 263 262 262 262 262 261 260 259 259 259 260 261 261 261 261 262 263 263 265 267 268 269 269 270
269 268 266 263 261 256 255 256 259 260 261 263 262 260 258 259 260 261 263 264 264 262 261 262 263 262 262 260 260 261 261 261 261 261 261 262 263 264 266 268 269 269 270 270
268 268 268 268 264 259 257 257 258 261 262 263 263 260 257 259 261 263 263 263 264 265 264 262 263 264 263 262 262 261 260 261 262 262 263 264 264 264 266 268 269 270 271 272
266 267 267 269 267 262 260 260 259 261 262 262 263 262 260 259 262 263 264 264 265 266 265 264 265 266 265 264 263 262 260 260 262 263 264 265 265 266 267 268 269 270 271 273
264 266 267 267 266 264 262 259 258 260 262 263 264 264 262 262 263 264 266 267 267 268 267 266 267 267 266 266 264 263 262 262 263 264 264 264 266 268 269 270 270 272 273 274
264 265 266 264 264 263 262 259 258 260 261 264 265 265 265 264 264 266 267 268 269 269 269 268 268 267 266 267 266 265 265 264 265 265 265 265 267 269 271 272 273 273 275 275
263 262 263 263 261 260 260 260 261 262 263 265 266 266 267 266 266 268 270 272 271 271 269 268 269 269 267 267 267 267 267 266 265 264 266 267 268 270 272 273 274 275 275 276
263 263 261 260 260 259 259 261 264 263 263 264 265 266 266 268 269 270 272 273 273 272 271 270 270 270 268 267 267 268 267 266 265 266 269 270 271 272 273 274 275 276 276 276
264 263 262 261 260 257 259 261 263 262 263 265 267 266 267 269 270 271 273 274 274 273 273 271 269 268 268 268 267 268 268 268 268 268 269 271 271 272 273 275 275 276 276 276
263 262 262 262 259 257 259 261 263 264 265 266 267 268 268 268 270 272 274 273 274 274 273 272 270 268 269 269 269 269 269 269 268 267 268 270 271 272 273 275 275 276 276 276
264 264 263 261 259 257 259 260 262 265 267 267 268 268 269 270 270 271 271 272 273 274 273 272 272 271 270 270 270 270 270 270 268 267 268 269 270 271 273 275 276 276 275 276
264 265 264 261 259 258 259 259 261 265 268 269 270 269 270 271 271 271 271 271 273 274 274 273 273 273 272 271 270 270 269 268 267 267 266 267 269 270 273 275 276 275 275 276
265 265 264 263 260 258 257 259 262 265 268 270 270 272 273 271 271 273 274 274 275 275 276 276 275 275 274 273 271 269 267 267 266 265 265 266 268 270 272 274 274 275 277 277
264 264 264 265 262 259 259 261 262 264 266 269 271 273 274 273 272 273 274 275 276 277 278 279 278 276 275 274 273 270 268 267 265 264 264 266 267 269 270 272 273 274 276 275
264 264 264 263 261 259 259 261 263 264 267 269 271 273 274 274 275 275 275 276 277 278 278 279 279 277 276 276 274 271 268 266 264 263 264 265 266 267 269 271 272 273 272 272
265 266 265 264 261 260 261 263 264 266 268 270 272 273 274 277 278 278 277 276 277 277 277 279 280 279 278 277 276 273 269 265 264 263 262 264 265 266 269 271 272 271 270 270
266 267 267 266 264 263 262 263 265 266 269 271 274 275 277 279 280 279 279 278 277 277 278 280 281 280 279 277 274 272 269 267 265 263 262 263 264 266 269 271 271 270 270 269
268 269 269 268 267 265 264 263 265 267 269 272 274 277 280 282 282 281 279 279 279 280 282 282 282 280 278 275 271 269 268 266 263 262 261 263 265 267 269 269 269 270 269 268
268 269 270 270 269 268 267 266 266 268 270 273 276 279 281 282 282 281 281 281 281 283 284 283 281 279 275 271 268 267 267 266 264 262 262 263 266 267 268 269 269 268 267 267
269 271 272 273 271 271 268 266 266 268 271 273 275 278 280 280 281 281 281 282 283 285 285 284 281 278 274 272 270 269 268 267 266 265 265 265 266 266 267 268 267 266 265 265
270 271 272 273 273 272 268 266 267 269 271 272 274 276 278 279 280 282 283 285 286 287 287 284 280 278 276 274 273 270 269 268 268 269 269 268 266 266 266 266 266 266 264 263
270 272 273 274 274 270 266 265 266 267 268 271 274 276 279 280 281 282 284 286 286 286 286 283 281 280 278 276 274 272 271 270 270 271 271 269 267 266 265 265 265 264 262 262
270 273 274 274 271 269 267 265 265 267 270 273 276 279 282 282 282 283 286 287 285 284 283 283 283 283 280 277 275 274 274 273 274 274 274 271 268 265 264 264 264 262 260 260
269 272 273 271 270 269 269 268 268 271 273 275 276 279 281 282 282 284 286 287 285 282 282 282 283 284 283 280 277 277 276 276 276 276 273 270 268 265 263 263 262 261 260 261
Height
5549 5550 5550 5551 5554 5555 5556 5557 5558 5561 5563 5566 5566 5567 5568 5569 5571 5573 5574 5576 5577 5578 5580 5581 5583 5584 5585 5587 5588 5589 5591 5592 5593 5594 5595 5596 5597 5598 5598 5599 5599 5599 5600 5600
5541 5542 5542 5543 5546 5547 5548 5550 5551 5553 5555 5558 5558 5558 5560 5562 5563 5565 5566 5567 5568 5569 5571 5572 5574 5575 5576 5577 5578 5580 5581 5582 5583 5584 5585 5586 5587 5587 5588 5589 5589 5589 5589 5589
5534 5535 5533 5536 5539 5540 5542 5543 5544 5545 5549 5549 5550 5551 5552 5554 5556 5557 5558 5559 5560 5561 5562 5563 5564 5565 5566 5567 5569 5570 5571 5572 5573 5574 5575 5576 5576 5577 5578 5578 5579 5579 5579 5579
5526 5527 5526 5532 5532 5533 5534 5536 5537 5538 5540 5541 5542 5543 5544 5546 5547 5548 5549 5550 5551 5552 5553 5553 5554 5555 5557 5558 5559 5560 5561 5562 5563 5564 5565 5566 5566 5567 5568 5568 5569 5569 5569 5569
5519 5518 5519 5524 5525 5525 5526 5528 5530 5531 5532 5533 5533 5535 5537 5538 5538 5540 5540 5541 5542 5543 5544 5545 5545 5546 5547 5548 5549 5550 5551 5552 5553 5554 5555 5556 5557 5557 5558 5558 5559 5559 5559 5559
5512 5512 5513 5518 5519 5518 5520 5521 5524 5524 5525 5525 5526 5527 5531 5530 5530 5531 5532 5533 5533 5534 5535 5536 5536 5537 5538 5539 5539 5540 5541 5542 5543 5544 5545 5546 5547 5547 5548 5548 5548 5549 5549 5549
5506 5505 5507 5511 5511 5511 5513 5516 5516 5516 5517 5518 5518 5520 5522 5522 5523 5523 5523 5524 5525 5525 5526 5527 5527 5528 5529 5529 5530 5531 5532 5533 5534 5535 5535 5536 5537 5537 5538 5538 5538 5539 5539 5538
5499 5499 5503 5504 5504 5505 5506 5507 5508 5508 5509 5510 5511 5511 5512 5513 5514 5515 5515 5516 5516 5517 5518 5518 5518 5519 5520 5520 5521 5521 5522 5523 5524 5525 5526 5526 5527 5528 5528 5528 5528 5528 5528 5528
5493 5496 5496 5496 5497 5497 5498 5499 5500 5501 5502 5503 5503 5504 5505 5506 5507 5507 5507 5508 5508 5508 5509 5509 5509 5510 5511 5511 5512 5512 5513 5514 5515 5515 5516 5517 5517 5518 5518 5518 5518 5518 5518 5517
5485 5487 5488 5489 5489 5490 5491 5492 5493 5494 5495 5495 5496 5497 5498 5498 5499 5499 5499 5499 5499 5499 5500 5500 5501 5501 5501 5502 5502 5503 5503 5504 5505 5505 5506 5507 5507 5507 5508 5508 5508 5507 5507 5506
5478 5481 5481 5482 5482 5483 5484 5485 5486 5486 5487 5488 5488 5489 5490 5491 5491 5491 5491 5491 5491 5490 5491 5491 5492 5492 5492 5493 5493 5494 5494 5495 5495 5496 5496 5497 5497 5497 5497 5498 5497 5497 5496 5496
5472 5473 5473 5474 5475 5475 5476 5478 5479 5479 5480 5480 5481 5481 5482 5483 5483 5483 5483 5482 5482 5482 5482 5482 5482 5482 5483 5483 5484 5485 5485 5485 5486 5486 5487 5487 5487 5488 5487 5487 5487 5487 5486 5485
5464 5464 5465 5466 5467 5468 5469 5471 5471 5472 5473 5473 5474 5474 5474 5475 5475 5475 5474 5474 5474 5473 5473 5473 5473 5474 5474 5474 5475 5475 5476 5476 5476 5476 5477 5477 5478 5478 5478 5478 5478 5477 5477 5476
5456 5457 5457 5459 5460 5461 5462 5463 5464 5465 5466 5466 5467 5467 5467 5467 5467 5467 5466 5466 5466 5465 5465 5465 5465 5465 5465 5465 5465 5466 5466 5466 5466 5467 5467 5468 5468 5469 5469 5468 5469 5468 5468 5467
5450 5450 5450 5451 5452 5453 5454 5456 5457 5458 5459 5459 5459 5460 5460 5460 5460 5459 5459 5458 5458 5458 5457 5457 5457 5456 5456 5456 5456 5456 5456 5457 5457 5458 5458 5459 5459 5460 5460 5460 5459 5459 5459 5459
5443 5443 5444 5444 5445 5446 5448 5449 5450 5451 5452 5452 5452 5452 5452 5452 5452 5452 5451 5451 5450 5450 5449 5449 5448 5448 5447 5447 5446 5446 5447 5448 5448 5449 5450 5450 5451 5451 5451 5451 5451 5451 5451 5450
5437 5437 5438 5438 5439 5440 5442 5443 5444 5444 5444 5445 5445 5445 5445 5445 5445 5445 5444 5443 5442 5442 5441 5440 5440 5439 5438 5438 5438 5438 5438 5439 5440 5441 5441 5442 5442 5443 5443 5443 5443 5443 5443 5442
5431 5431 5432 5432 5433 5434 5435 5436 5437 5437 5437 5438 5438 5438 5438 5438 5437 5437 5436 5436 5435 5434 5434 5433 5432 5431 5430 5430 5430 5429 5430 5430 5431 5432 5433 5434 5435 5435 5435 5435 5435 5436 5435 5435
5425 5425 5426 5426 5426 5427 5428 5429 5430 5431 5431 5431 5431 5431 5431 5430 5430 5429 5429 5428 5428 5427 5426 5425 5424 5423 5423 5422 5422 5422 5422 5423 5424 5424 5425 5426 5427 5427 5428 5428 5428 5428 5428 5428
5419 5420 5420 5420 5420 5421 5422 5423 5424 5424 5424 5424 5425 5424 5424 5423 5423 5422 5421 5421 5420 5419 5418 5418 5417 5416 5415 5415 5415 5415 5415 5416 5416 5417 5418 5419 5420 5420 5421 5421 5421 5421 5421 5421
5414 5414 5414 5415 5415 5415 5416 5416 5417 5417 5418 5418 5418 5418 5417 5416 5416 5415 5414 5414 5413 5412 5411 5410 5409 5408 5408 5408 5408 5408 5408 5409 5409 5410 5411 5412 5412 5413 5413 5414 5414 5414 5414 5414
5409 5409 5409 5409 5409 5409 5410 5410 5410 5411 5411 5411 5411 5411 5411 5410 5409 5408 5408 5407 5406 5405 5404 5403 5402 5401 5401 5401 5401 5401 5402 5402 5403 5403 5404 5405 5405 5406 5406 5406 5407 5407 5407 5407
5404 5404 5404 5404 5404 5404 5404 5404 5404 5404 5405 5405 5405 5405 5404 5403 5403 5402 5402 5401 5400 5399 5398 5397 5396 5395 5395 5395 5395 5395 5395 5396 5396 5397 5397 5398 5398 5398 5399 5399 5399 5400 5400 5401
5399 5399 5399 5398 5398 5398 5398 5398 5399 5399 5399 5399 5399 5399 5398 5398 5397 5396 5396 5395 5394 5393 5392 5391 5390 5389 5389 5389 5389 5389 5389 5389 5390 5390 5390 5390 5391 5391 5392 5392 5392 5393 5393 5394
5394 5394 5394 5393 5393 5393 5393 5394 5394 5394 5394 5394 5394 5393 5393 5392 5392 5391 5390 5389 5388 5387 5386 5385 5384 5384 5384 5383 5383 5383 5383 5383 5383 5383 5383 5383 5384 5384 5384 5385 5385 5386 5386 5387
5389 5389 5389 5388 5388 5388 5389 5389 5389 5389 5389 5389 5389 5388 5388 5387 5386 5385 5385 5384 5382 5382 5381 5380 5380 5379 5378 5378 5378 5378 5378 5377 5377 5377 5377 5377 5377 5377 5378 5378 5379 5379 5380 5381
5384 5384 5384 5384 5384 5384 5384 5384 5384 5384 5384 5384 5384 5383 5383 5382 5381 5380 5379 5379 5378 5377 5376 5376 5375 5374 5374 5373 5373 5373 5372 5372 5371 5371 5371 5371 5371 5371 5372 5372 5372 5373 5374 5375